• Em Portugal
  • Lista de países
  • Para 7 dias
  • Temperatura da água
  • Mapas de satélite
  • Mapa do tempo
  • Widgets de tempo
  • user-avatar
    Iniciar Sessão

    Previsão horária em Sivkova

    Hoje, 21 Agosto, Terça-feira

    Tempo Temperatura Precipitação Vento Pressão Humidade
    00:00 +18°C° 0 mm 3 m/s 741 mmHg 89%
    01:00 +17°C° 0 mm 3 m/s 741 mmHg 89%
    02:00 +17°C° 0 mm 3 m/s 741 mmHg 90%
    03:00 +17°C° 0 mm 3 m/s 741 mmHg 89%
    04:00 +17°C° 0 mm 3 m/s 740 mmHg 88%
    05:00 +17°C° 0 mm 4 m/s 740 mmHg 87%
    06:00 +19°C° 0 mm 4 m/s 740 mmHg 82%
    07:00 +21°C° 0 mm 5 m/s 740 mmHg 76%
    08:00 +22°C° 0 mm 6 m/s 739 mmHg 71%
    09:00 +23°C° 0,2 mm 7 m/s 739 mmHg 68%
    10:00 +26°C° 0,2 mm 7 m/s 739 mmHg 65%
    11:00 +27°C° 0,2 mm 7 m/s 738 mmHg 62%
    12:00 +26°C° 1,1 mm 7 m/s 738 mmHg 66%
    13:00 +24°C° 1,1 mm 7 m/s 738 mmHg 69%
    14:00 +24°C° 1,1 mm 7 m/s 738 mmHg 73%
    15:00 +23°C° 0,6 mm 6 m/s 738 mmHg 75%
    16:00 +22°C° 0,6 mm 5 m/s 738 mmHg 76%
    17:00 +22°C° 0,6 mm 4 m/s 738 mmHg 78%
    18:00 +20°C° 0,1 mm 4 m/s 738 mmHg 82%
    19:00 +19°C° 0,1 mm 4 m/s 738 mmHg 85%
    20:00 +17°C° 0,1 mm 3 m/s 739 mmHg 89%
    21:00 +16°C° 0 mm 3 m/s 739 mmHg 89%
    22:00 +14°C° 0 mm 3 m/s 739 mmHg 89%
    23:00 +14°C° 0 mm 3 m/s 740 mmHg 89%

    Amanhã, 22 Agosto, Quarta-feira

    Tempo Temperatura Precipitação Vento Pressão Humidade
    00:00 +14°C° 0 mm 2 m/s 740 mmHg 89%
    01:00 +13°C° 0 mm 2 m/s 740 mmHg 89%
    02:00 +13°C° 0 mm 2 m/s 741 mmHg 89%
    03:00 +12°C° 0 mm 2 m/s 741 mmHg 89%
    04:00 +12°C° 0 mm 2 m/s 742 mmHg 89%
    05:00 +10°C° 0 mm 2 m/s 742 mmHg 89%
    06:00 +12°C° 0 mm 3 m/s 742 mmHg 82%
    07:00 +13°C° 0 mm 3 m/s 743 mmHg 75%
    08:00 +15°C° 0 mm 4 m/s 743 mmHg 68%
    09:00 +17°C° 0 mm 4 m/s 743 mmHg 63%
    10:00 +17°C° 0 mm 5 m/s 744 mmHg 57%
    11:00 +19°C° 0 mm 5 m/s 744 mmHg 52%
    12:00 +19°C° 0 mm 5 m/s 744 mmHg 50%
    13:00 +20°C° 0 mm 5 m/s 744 mmHg 49%
    14:00 +20°C° 0 mm 5 m/s 744 mmHg 47%
    15:00 +20°C° 0 mm 4 m/s 744 mmHg 51%
    16:00 +19°C° 0 mm 3 m/s 745 mmHg 55%
    17:00 +19°C° 0 mm 3 m/s 745 mmHg 58%
    18:00 +17°C° 0 mm 3 m/s 745 mmHg 63%
    19:00 +14°C° 0 mm 3 m/s 746 mmHg 67%
    20:00 +14°C° 0 mm 2 m/s 746 mmHg 71%
    21:00 +13°C° 0 mm 2 m/s 747 mmHg 73%
    22:00 +12°C° 0 mm 2 m/s 747 mmHg 75%
    23:00 +10°C° 0 mm 2 m/s 747 mmHg 77%

    Depois de amanhã, 23 Agosto, Quinta-feira

    Tempo Temperatura Precipitação Vento Pressão Humidade
    00:00 +10°C° 0 mm 2 m/s 748 mmHg 78%
    01:00 +9°C° 0 mm 2 m/s 748 mmHg 79%
    02:00 +9°C° 0 mm 2 m/s 748 mmHg 80%
    03:00 +9°C° 0 mm 2 m/s 748 mmHg 81%
    04:00 +9°C° 0 mm 1 m/s 748 mmHg 82%
    05:00 +9°C° 0 mm 1 m/s 749 mmHg 83%
    06:00 +11°C° 0 mm 1 m/s 749 mmHg 76%
    07:00 +13°C° 0 mm 1 m/s 749 mmHg 69%
    08:00 +15°C° 0 mm 1 m/s 749 mmHg 62%
    09:00 +18°C° 0 mm 1 m/s 749 mmHg 57%
    10:00 +19°C° 0 mm 1 m/s 749 mmHg 51%
    11:00 +21°C° 0 mm 1 m/s 749 mmHg 46%
    12:00 +21°C° 0 mm 1 m/s 749 mmHg 45%
    13:00 +20°C° 0 mm 0 m/s 749 mmHg 43%
    14:00 +20°C° 0 mm 0 m/s 749 mmHg 42%
    15:00 +20°C° 0 mm 0 m/s 748 mmHg 45%
    16:00 +19°C° 0 mm 0 m/s 748 mmHg 47%
    17:00 +19°C° 0 mm 0 m/s 748 mmHg 50%
    18:00 +19°C° 0 mm 1 m/s 748 mmHg 54%
    19:00 +16°C° 0 mm 1 m/s 748 mmHg 57%
    20:00 +14°C° 0 mm 1 m/s 748 mmHg 61%
    21:00 +14°C° 0 mm 1 m/s 748 mmHg 62%
    22:00 +13°C° 0 mm 1 m/s 748 mmHg 64%
    23:00 +13°C° 0 mm 2 m/s 748 mmHg 65%

    24 Agosto, Sexta-feira

    Tempo Temperatura Precipitação Vento Pressão Humidade
    00:00 +12°C° 0 mm 2 m/s 748 mmHg 67%
    01:00 +12°C° 0 mm 2 m/s 748 mmHg 68%
    02:00 +10°C° 0 mm 2 m/s 748 mmHg 70%
    03:00 +10°C° 0 mm 2 m/s 748 mmHg 71%
    04:00 +10°C° 0 mm 2 m/s 748 mmHg 73%
    05:00 +10°C° 0 mm 2 m/s 748 mmHg 74%
    06:00 +13°C° 0 mm 2 m/s 748 mmHg 70%
    07:00 +15°C° 0 mm 2 m/s 748 mmHg 65%
    08:00 +17°C° 0 mm 2 m/s 748 mmHg 61%
    09:00 +18°C° 0 mm 3 m/s 748 mmHg 56%
    10:00 +20°C° 0 mm 3 m/s 748 mmHg 52%
    11:00 +21°C° 0 mm 3 m/s 747 mmHg 47%
    12:00 +22°C° 0 mm 3 m/s 747 mmHg 46%
    13:00 +22°C° 0 mm 3 m/s 747 mmHg 45%
    14:00 +24°C° 0 mm 3 m/s 747 mmHg 44%
    15:00 +22°C° 0 mm 3 m/s 746 mmHg 48%
    16:00 +23°C° 0 mm 2 m/s 746 mmHg 52%
    17:00 +23°C° 0 mm 2 m/s 745 mmHg 56%
    18:00 +20°C° 0 mm 2 m/s 745 mmHg 60%
    19:00 +18°C° 0 mm 2 m/s 745 mmHg 64%
    20:00 +16°C° 0 mm 2 m/s 745 mmHg 68%
    21:00 +15°C° 0 mm 2 m/s 745 mmHg 69%
    22:00 +15°C° 0 mm 2 m/s 745 mmHg 70%
    23:00 +14°C° 0 mm 2 m/s 745 mmHg 72%

    25 Agosto, Sábado

    Tempo Temperatura Precipitação Vento Pressão Humidade
    00:00 +13°C° 0 mm 3 m/s 745 mmHg 72%
    01:00 +13°C° 0 mm 3 m/s 745 mmHg 73%
    02:00 +12°C° 0 mm 3 m/s 744 mmHg 74%
    03:00 +12°C° 0 mm 3 m/s 744 mmHg 74%
    04:00 +12°C° 0 mm 3 m/s 744 mmHg 75%
    05:00 +12°C° 0 mm 3 m/s 744 mmHg 75%
    06:00 +14°C° 0 mm 3 m/s 744 mmHg 70%
    07:00 +17°C° 0 mm 3 m/s 744 mmHg 64%
    08:00 +18°C° 0 mm 4 m/s 744 mmHg 59%
    09:00 +20°C° 0 mm 4 m/s 744 mmHg 54%
    10:00 +22°C° 0 mm 4 m/s 744 mmHg 49%
    11:00 +23°C° 0 mm 5 m/s 744 mmHg 45%
    12:00 +25°C° 0 mm 5 m/s 744 mmHg 44%
    13:00 +25°C° 0 mm 5 m/s 743 mmHg 43%
    14:00 +26°C° 0 mm 5 m/s 743 mmHg 42%
    15:00 +25°C° 0 mm 4 m/s 743 mmHg 46%
    16:00 +24°C° 0 mm 3 m/s 742 mmHg 50%
    17:00 +24°C° 0 mm 3 m/s 742 mmHg 55%
    18:00 +21°C° 0 mm 3 m/s 742 mmHg 59%
    19:00 +19°C° 0 mm 3 m/s 742 mmHg 62%
    20:00 +17°C° 0 mm 3 m/s 742 mmHg 66%
    21:00 +16°C° 0 mm 3 m/s 742 mmHg 66%
    22:00 +16°C° 0 mm 3 m/s 741 mmHg 65%
    23:00 +14°C° 0 mm 3 m/s 741 mmHg 65%

    26 Agosto, Domingo

    Tempo Temperatura Precipitação Vento Pressão Humidade
    00:00 +14°C° 0 mm 3 m/s 741 mmHg 65%
    01:00 +14°C° 0 mm 3 m/s 741 mmHg 64%
    02:00 +13°C° 0 mm 3 m/s 741 mmHg 64%
    03:00 +13°C° 0 mm 3 m/s 741 mmHg 63%
    04:00 +13°C° 0 mm 3 m/s 741 mmHg 63%
    05:00 +13°C° 0 mm 3 m/s 741 mmHg 63%
    06:00 +14°C° 0 mm 3 m/s 741 mmHg 59%
    07:00 +17°C° 0 mm 4 m/s 741 mmHg 56%
    08:00 +19°C° 0 mm 4 m/s 741 mmHg 53%
    09:00 +21°C° 0 mm 4 m/s 741 mmHg 49%
    10:00 +23°C° 0 mm 4 m/s 741 mmHg 46%
    11:00 +26°C° 0 mm 5 m/s 741 mmHg 42%
    12:00 +26°C° 0 mm 5 m/s 740 mmHg 40%
    13:00 +27°C° 0 mm 5 m/s 740 mmHg 39%
    14:00 +27°C° 0 mm 5 m/s 740 mmHg 38%
    15:00 +26°C° 0 mm 4 m/s 740 mmHg 43%
    16:00 +26°C° 0 mm 3 m/s 740 mmHg 48%
    17:00 +25°C° 0 mm 3 m/s 740 mmHg 53%
    18:00 +24°C° 0 mm 3 m/s 740 mmHg 52%
    19:00 +22°C° 0 mm 3 m/s 740 mmHg 52%
    20:00 +20°C° 0 mm 3 m/s 740 mmHg 51%
    21:00 +20°C° 0 mm 3 m/s 740 mmHg 50%
    22:00 +20°C° 0 mm 3 m/s 740 mmHg 50%
    23:00 +19°C° 0 mm 3 m/s 740 mmHg 49%
    Mostrar mais